Wind_Speed
48 54 62 60 61 43 34 36 36 30 32 34 36 40 49 42 38 36 26 20 14 10 13 17 19 19 20 23 29 27 25 33 31 29 28 27 29 28 26 25 26 22 20 21
44 61 65 60 48 54 51 38 38 34 36 37 45 50 48 41 40 37 22 14 10 12 15 17 19 21 25 27 26 26 27 28 28 27 26 27 26 26 24 23 22 20 18 17
62 68 56 57 51 44 51 50 41 38 26 34 33 41 42 38 29 26 18 12 10 13 14 17 22 24 25 24 14 18 17 21 23 24 25 25 25 23 21 20 19 17 16 9
50 56 29 49 50 38 43 40 40 38 24 23 21 26 34 37 43 27 20 12 10 12 13 15 20 20 17 12 14 13 12 18 19 21 24 23 22 20 18 18 16 15 12 6
45 33 52 36 40 41 45 26 33 32 25 22 28 18 43 22 34 19 19 11 12 14 17 17 17 11 13 16 10 8 12 14 17 21 21 20 18 16 17 17 18 14 8 5
31 19 27 53 33 35 24 23 17 16 18 19 27 22 53 27 31 21 21 15 12 15 12 12 10 10 12 12 8 7 11 14 18 19 18 16 15 15 16 17 19 11 7 6
25 29 21 25 33 26 29 24 11 12 12 11 18 18 40 23 21 11 26 18 14 12 12 11 8 9 11 8 6 8 12 16 15 15 13 12 13 14 14 17 11 6 3 4
23 15 33 23 32 37 40 38 17 14 13 9 20 15 24 30 21 15 23 23 18 15 12 13 9 8 9 7 7 10 14 11 11 10 10 11 12 10 11 10 4 1 2 3
17 25 13 30 29 36 38 40 31 18 4 5 9 13 21 21 14 16 21 21 18 16 13 13 9 8 9 6 7 11 10 8 9 8 9 9 8 9 9 6 2 1 2 5
14 9 26 32 29 31 31 38 25 22 13 9 6 9 15 8 14 19 20 18 16 15 15 14 7 10 9 4 7 8 7 8 7 6 6 6 7 10 4 2 2 1 2 5
27 7 15 27 35 38 28 41 19 22 14 7 4 8 13 12 11 17 15 13 10 12 16 9 6 11 7 4 7 6 7 8 6 4 3 2 7 6 4 1 4 2 3 6
22 18 12 35 26 29 38 32 38 24 12 20 10 10 6 17 13 15 13 10 10 15 14 8 5 8 5 5 6 6 7 7 5 3 3 5 8 9 2 3 3 1 3 6
5 15 20 8 18 29 42 36 36 26 16 24 15 4 16 12 16 15 11 8 11 17 14 9 5 7 6 4 6 6 7 5 5 4 5 6 5 9 6 5 6 5 4 9
10 10 20 14 19 16 32 37 32 34 27 16 29 17 18 16 15 13 9 7 14 18 12 8 6 9 7 5 7 7 5 4 5 6 7 6 1 5 7 4 4 5 5 6
13 4 17 29 14 10 9 35 38 38 36 28 21 30 26 19 9 9 12 12 18 19 14 8 6 9 7 6 8 6 4 5 5 7 8 7 2 2 4 5 3 1 5 6
8 3 7 28 22 12 12 9 32 37 34 29 25 28 23 27 19 12 9 16 20 18 15 10 8 10 9 8 9 7 4 6 7 7 8 7 5 2 2 5 8 7 9 7
6 9 5 16 15 11 15 20 17 24 30 34 35 29 12 18 24 12 6 16 15 17 17 10 7 5 9 9 10 8 5 7 8 7 8 9 7 4 4 5 7 11 10 10
1 6 5 5 7 10 10 12 19 16 20 32 36 33 35 20 20 17 10 18 15 16 16 14 11 9 11 12 13 10 7 6 9 9 9 10 8 6 6 5 6 9 9 7
11 3 2 3 11 5 11 5 19 19 19 23 18 32 38 28 26 26 19 18 19 19 14 14 9 7 9 10 12 10 9 7 9 11 10 11 9 7 6 6 6 7 8 8
13 10 6 3 5 13 3 5 12 26 15 20 26 24 30 35 36 29 20 17 22 24 21 17 15 11 10 10 14 11 9 9 9 11 11 11 10 8 6 6 5 6 8 8
20 16 16 10 4 3 6 0 16 16 12 20 25 28 26 30 29 29 23 24 26 23 25 20 17 11 7 10 12 13 11 10 10 11 12 12 11 10 8 7 6 6 8 9
11 12 10 7 5 4 6 4 12 5 15 18 25 26 27 27 28 30 25 28 32 25 29 25 22 17 13 12 11 13 13 12 11 11 12 12 11 11 9 8 7 7 9 10
3 5 4 7 6 5 6 9 7 3 13 17 22 29 28 25 27 32 28 31 33 29 29 28 26 21 16 12 13 11 13 12 11 12 11 12 13 12 11 10 9 9 9 12
7 6 5 4 6 9 6 5 2 3 6 14 19 27 33 27 27 32 32 30 29 35 30 30 30 26 22 16 13 15 12 10 11 11 13 13 13 13 12 12 12 11 10 10
3 7 5 5 10 8 13 7 7 6 6 12 18 23 25 32 31 27 28 29 31 35 33 32 29 29 26 22 16 19 20 15 13 13 13 15 15 15 14 13 12 13 14 13
11 7 2 3 6 9 9 12 10 10 10 11 20 23 24 22 30 30 30 30 33 36 32 28 33 32 31 27 22 19 23 21 18 16 16 15 16 16 17 17 16 15 15 15
Wind_Direction
221 222 224 224 231 235 241 244 244 247 255 271 276 277 283 290 297 305 290 273 256 271 258 260 243 258 267 271 272 274 262 267 272 273 282 295 304 307 306 304 307 303 301 299
215 224 233 234 236 240 238 237 240 250 256 265 274 279 282 289 295 299 279 247 268 263 249 243 253 264 276 279 280 277 263 269 269 273 284 298 302 305 300 304 304 301 303 301
218 235 231 231 231 230 236 234 239 248 255 264 270 275 284 291 289 287 252 251 248 252 250 258 267 272 275 290 285 276 264 267 267 275 289 298 301 299 298 304 306 301 306 291
223 229 230 225 227 224 236 238 241 250 246 256 267 284 277 285 289 276 227 233 251 246 254 265 273 273 275 262 260 249 259 264 270 282 295 299 300 293 300 303 308 304 303 280
219 219 215 222 232 227 239 236 240 236 250 266 262 277 279 280 285 266 215 222 233 260 267 274 268 260 278 262 238 261 268 271 276 292 297 299 290 295 300 298 311 300 295 273
222 230 227 233 230 232 223 226 222 238 244 247 257 248 278 267 281 264 211 209 229 251 254 266 245 263 273 255 259 277 273 273 290 295 300 291 294 296 295 309 308 284 290 253
220 214 224 220 212 212 202 204 189 213 212 240 246 222 252 260 272 278 210 208 236 238 255 265 251 269 267 258 265 268 271 285 291 299 292 293 294 292 307 314 305 287 270 237
205 199 210 200 205 199 199 198 212 217 225 235 225 231 257 273 273 243 210 215 221 246 270 238 253 254 248 254 257 266 278 280 297 295 293 290 292 299 318 327 329 163 191 193
217 226 219 212 202 194 205 213 219 232 191 214 213 238 271 261 237 212 199 212 219 239 247 223 231 236 226 227 266 272 268 289 290 292 293 291 298 306 320 325 311 149 153 181
237 233 214 206 199 203 210 200 193 210 212 218 220 234 232 242 221 188 188 212 225 228 205 211 220 222 209 244 272 258 275 292 281 284 291 296 318 327 312 290 196 85 189 176
221 248 184 181 197 191 192 193 198 202 214 209 230 235 244 243 196 186 187 202 198 200 195 203 212 209 207 283 253 264 278 290 264 274 271 335 14 22 91 47 158 155 159 159
201 227 228 205 207 202 201 202 198 199 189 217 222 229 200 192 151 151 156 171 186 192 193 197 214 217 210 276 244 262 276 277 234 228 187 89 55 36 67 116 140 203 162 154
159 215 220 181 201 207 209 208 208 214 216 208 198 190 217 204 185 168 156 160 191 195 200 196 221 214 214 243 241 257 262 248 203 180 161 129 54 45 58 82 104 104 139 160
330 232 216 204 195 201 209 211 211 211 216 206 213 214 202 194 177 194 178 187 196 196 203 191 216 212 213 221 232 241 245 205 176 169 159 152 86 40 46 90 108 108 97 161
323 260 230 227 205 199 180 215 214 216 217 221 218 218 211 179 171 203 208 229 206 202 203 192 220 211 210 213 220 223 213 172 159 169 162 156 158 52 49 72 79 279 155 121
326 316 287 224 232 251 249 223 218 222 220 223 227 241 248 233 234 224 242 200 192 204 205 186 223 213 207 206 207 202 181 150 151 166 155 154 154 101 70 70 97 85 111 139
353 344 339 212 213 256 260 228 215 218 220 223 224 220 212 199 211 213 230 187 195 201 203 204 222 209 199 203 205 189 168 148 148 158 150 150 144 121 84 82 89 96 114 103
295 355 322 251 200 232 231 217 219 208 214 231 235 236 234 217 206 218 221 196 200 198 199 204 218 209 195 205 202 192 166 155 149 156 152 153 147 128 95 76 91 116 115 106
196 231 256 239 208 221 197 206 196 195 213 223 222 231 236 234 239 220 210 210 202 191 198 194 192 210 207 211 203 196 176 164 154 155 156 155 154 134 107 80 78 97 109 97
203 203 217 218 222 212 142 174 190 191 199 225 221 221 228 230 235 201 208 219 216 192 186 188 189 203 198 204 200 199 181 173 158 157 161 159 159 149 137 109 81 89 98 104
195 216 218 222 250 273 259 209 183 182 208 212 217 225 222 222 219 195 200 202 195 188 190 196 203 201 194 204 199 202 190 175 173 160 167 163 163 162 157 143 124 109 107 103
176 177 200 205 218 231 329 136 180 185 238 212 210 219 223 217 212 211 201 201 190 192 192 197 204 210 204 215 201 199 194 191 179 165 163 170 164 163 163 157 143 131 122 120
204 212 173 177 193 148 83 79 113 198 227 235 215 218 222 220 208 212 203 202 201 189 198 198 202 210 212 206 219 195 199 197 187 179 168 171 173 167 164 160 156 149 140 138
198 196 218 272 220 214 187 164 149 224 234 228 221 216 219 216 210 214 213 211 207 201 200 201 203 211 217 212 210 213 210 196 200 193 186 179 179 180 176 173 167 163 157 150
147 180 205 254 249 260 187 197 211 208 224 226 223 218 216 219 215 216 211 208 210 205 201 209 209 211 220 219 211 212 221 220 210 211 203 192 188 183 183 185 182 175 174 169
24 21 16 263 310 239 215 202 221 216 206 220 216 222 222 215 209 214 206 202 207 208 208 212 212 210 219 219 217 212 217 229 225 221 220 208 201 193 186 186 192 193 191 188
Height
3068 3072 3062 3067 3070 3083 3089 3090 3093 3098 3102 3103 3100 3096 3099 3101 3098 3095 3091 3090 3090 3090 3092 3094 3095 3096 3096 3096 3095 3094 3095 3094 3095 3095 3094 3093 3089 3085 3082 3078 3075 3071 3067 3064
3061 3049 3049 3069 3076 3076 3080 3082 3084 3090 3097 3094 3093 3088 3091 3092 3090 3088 3086 3086 3086 3087 3088 3090 3091 3092 3091 3090 3089 3089 3088 3090 3090 3090 3090 3087 3083 3081 3078 3075 3072 3068 3064 3061
3035 3025 3054 3058 3062 3065 3069 3072 3080 3084 3092 3090 3086 3080 3083 3082 3083 3083 3082 3083 3083 3083 3084 3086 3087 3086 3085 3084 3082 3083 3084 3085 3086 3086 3085 3082 3078 3077 3074 3071 3068 3064 3061 3058
3031 3038 3044 3046 3049 3061 3064 3071 3079 3084 3087 3083 3087 3071 3074 3074 3074 3076 3077 3078 3079 3080 3081 3082 3082 3081 3081 3079 3079 3079 3081 3081 3082 3081 3079 3077 3075 3072 3070 3067 3064 3061 3059 3057
3011 3022 3034 3038 3041 3053 3054 3070 3071 3078 3080 3082 3082 3078 3057 3069 3065 3069 3072 3074 3075 3076 3077 3077 3077 3077 3077 3076 3075 3077 3077 3078 3078 3077 3075 3073 3071 3069 3067 3063 3061 3058 3057 3056
3018 3019 3027 3028 3041 3046 3060 3068 3069 3071 3076 3072 3074 3078 3037 3059 3059 3062 3067 3070 3072 3073 3073 3074 3074 3074 3073 3073 3073 3074 3075 3075 3074 3073 3071 3069 3068 3066 3063 3061 3058 3055 3055 3054
3011 3013 3017 3025 3036 3044 3052 3062 3063 3068 3065 3055 3065 3068 3040 3051 3054 3056 3061 3065 3067 3069 3070 3070 3071 3071 3070 3070 3071 3072 3072 3072 3071 3070 3068 3067 3065 3062 3061 3058 3055 3054 3053 3052
3003 3007 3008 3013 3020 3030 3037 3045 3045 3050 3047 3053 3056 3051 3036 3045 3048 3052 3055 3060 3063 3065 3066 3067 3068 3068 3068 3068 3069 3070 3069 3069 3068 3067 3066 3064 3062 3061 3059 3056 3054 3053 3052 3052
2996 2997 3001 3009 3016 3025 3030 3035 3046 3049 3048 3047 3041 3041 3038 3039 3041 3046 3050 3055 3059 3061 3062 3064 3065 3066 3066 3067 3067 3067 3067 3067 3066 3065 3064 3062 3060 3059 3057 3056 3055 3054 3052 3052
2993 2995 2997 3005 3014 3016 3016 3030 3037 3038 3036 3041 3035 3036 3034 3034 3038 3043 3047 3051 3054 3056 3059 3061 3063 3063 3064 3065 3065 3065 3065 3065 3065 3064 3062 3061 3059 3057 3055 3055 3054 3054 3054 3054
2992 2994 2993 2999 2995 3000 3013 3018 3022 3028 3030 3028 3031 3031 3032 3033 3035 3040 3045 3048 3050 3053 3056 3060 3061 3061 3062 3063 3063 3063 3063 3063 3063 3063 3061 3060 3059 3056 3055 3055 3054 3055 3055 3055
2990 2990 2989 2988 2996 3001 3005 3008 3011 3014 3023 3027 3028 3029 3027 3030 3035 3039 3042 3045 3048 3052 3055 3057 3059 3060 3060 3061 3061 3062 3062 3062 3062 3062 3060 3060 3059 3058 3056 3055 3055 3055 3055 3056
2986 2987 2985 2987 2994 2995 2994 3003 3010 3015 3018 3019 3025 3026 3028 3031 3033 3037 3041 3044 3047 3050 3054 3055 3057 3058 3058 3059 3060 3061 3061 3061 3061 3060 3060 3060 3060 3059 3057 3056 3056 3055 3056 3056
2980 2979 2980 2977 2982 2988 2994 2999 3004 3009 3012 3016 3018 3024 3025 3029 3032 3036 3040 3043 3046 3049 3052 3054 3055 3056 3057 3058 3059 3061 3060 3059 3059 3059 3059 3060 3061 3061 3059 3057 3057 3056 3057 3057
2979 2978 2978 2976 2978 2982 2986 2993 2998 3001 3008 3011 3017 3019 3022 3025 3030 3034 3037 3040 3044 3047 3050 3052 3053 3054 3056 3057 3059 3060 3059 3058 3059 3059 3059 3061 3061 3061 3060 3059 3058 3057 3057 3058
2977 2978 2976 2975 2979 2983 2984 2986 2992 2998 3005 3011 3013 3014 3019 3021 3027 3031 3033 3035 3040 3045 3049 3050 3052 3052 3054 3056 3058 3059 3058 3057 3058 3059 3060 3061 3062 3062 3062 3060 3060 3059 3058 3058
2977 2977 2977 2976 2979 2981 2983 2983 2988 2994 3002 3006 3006 3011 3015 3016 3022 3027 3031 3035 3039 3043 3046 3048 3050 3051 3053 3055 3057 3058 3058 3057 3057 3059 3060 3061 3062 3063 3063 3062 3061 3061 3060 3060
2974 2975 2976 2975 2978 2980 2979 2980 2985 2991 2997 3000 3003 3008 3011 3015 3019 3023 3027 3032 3037 3041 3044 3047 3048 3049 3051 3053 3055 3056 3057 3057 3057 3059 3060 3061 3062 3063 3064 3064 3064 3063 3063 3063
2971 2974 2975 2975 2975 2974 2976 2977 2980 2986 2991 2991 2995 3000 3004 3008 3010 3013 3021 3027 3033 3038 3041 3045 3047 3048 3049 3052 3054 3056 3056 3057 3057 3059 3061 3062 3063 3064 3065 3065 3065 3065 3065 3065
2970 2972 2975 2975 2973 2968 2974 2974 2976 2980 2985 2985 2990 2992 2995 3001 3006 3009 3019 3025 3029 3035 3039 3043 3045 3046 3048 3050 3052 3054 3056 3057 3058 3059 3061 3062 3063 3065 3066 3066 3067 3067 3067 3067
2967 2969 2970 2973 2974 2972 2970 2971 2974 2979 2983 2980 2983 2987 2991 2995 3003 3008 3012 3017 3026 3032 3036 3040 3043 3045 3047 3049 3050 3053 3055 3056 3058 3058 3060 3062 3063 3065 3066 3068 3068 3069 3070 3070
2963 2966 2968 2971 2973 2973 2968 2969 2973 2973 2972 2974 2979 2982 2988 2991 2998 3003 3008 3013 3016 3027 3032 3037 3040 3043 3045 3047 3049 3051 3054 3056 3057 3058 3060 3061 3063 3065 3066 3068 3069 3070 3071 3072
2964 2964 2965 2968 2970 2969 2969 2969 2968 2968 2970 2971 2975 2978 2984 2989 2995 2999 3004 3009 3014 3020 3028 3032 3036 3040 3043 3046 3048 3050 3052 3055 3056 3058 3060 3061 3063 3064 3066 3068 3070 3071 3073 3074
2960 2962 2964 2966 2965 2964 2966 2967 2967 2966 2967 2969 2971 2975 2980 2984 2990 2994 3000 3006 3011 3015 3023 3029 3033 3036 3040 3043 3046 3049 3051 3053 3055 3057 3059 3061 3062 3064 3065 3068 3070 3071 3073 3075
2961 2961 2962 2962 2961 2961 2963 2965 2965 2965 2965 2966 2968 2970 2975 2979 2985 2989 2995 3001 3007 3012 3016 3024 3029 3033 3036 3040 3044 3046 3048 3050 3053 3055 3057 3060 3062 3063 3065 3067 3070 3071 3073 3074
2962 2962 2961 2960 2960 2960 2960 2961 2962 2963 2962 2962 2965 2967 2970 2973 2979 2985 2991 2996 3002 3007 3012 3018 3024 3029 3033 3036 3041 3044 3046 3047 3050 3052 3054 3057 3060 3062 3064 3066 3068 3070 3072 3074